| time (UTC) | temp F | wind direction | speed MPH | gust MPH | rain 1hr in | rain 24hr in | rain mn in | humidity % | barometer mb |
| 20260506231323 | 76 | 346 | 7.0 | 16.0 | 0.00 | 0.00 | 0.00 | 21 | 1022.0 |
| 20260506230330 | 77 | 279 | 8.0 | 12.0 | 0.00 | 0.00 | 0.00 | 20 | 1022.2 |
| 20260506225334 | 77 | 246 | 6.0 | 14.0 | 0.00 | 0.00 | 0.00 | 21 | 1022.3 |
| 20260506224340 | 78 | 248 | 6.0 | 11.0 | 0.00 | 0.00 | 0.00 | 20 | 1022.2 |
| 20260506223331 | 77 | 260 | 3.0 | 11.0 | 0.00 | 0.00 | 0.00 | 20 | 1022.6 |
| 20260506222322 | 78 | 314 | 2.0 | 11.0 | 0.00 | 0.00 | 0.00 | 18 | 1022.5 |
| 20260506221331 | 78 | 44 | 5.0 | 11.0 | 0.00 | 0.00 | 0.00 | 18 | 1022.5 |
| 20260506220336 | 77 | 257 | 8.0 | 14.0 | 0.00 | 0.00 | 0.00 | 20 | 1022.7 |
| 20260506215324 | 77 | 325 | 4.0 | 11.0 | 0.00 | 0.00 | 0.00 | 20 | 1022.7 |
| 20260506214353 | 75 | 259 | 7.0 | 14.0 | 0.00 | 0.00 | 0.00 | 22 | 1022.8 |
| 20260506213320 | 76 | 236 | 5.0 | 11.0 | 0.00 | 0.00 | 0.00 | 22 | 1022.9 |
| 20260506212325 | 75 | 235 | 5.0 | 11.0 | 0.00 | 0.00 | 0.00 | 21 | 1023.2 |
| 20260506211337 | 75 | 331 | 3.0 | 10.0 | 0.00 | 0.00 | 0.00 | 22 | 1023.2 |
| 20260506210330 | 75 | 321 | 7.0 | 12.0 | 0.00 | 0.00 | 0.00 | 21 | 1023.3 |
| 20260506205334 | 76 | 335 | 4.0 | 11.0 | 0.00 | 0.00 | 0.00 | 21 | 1023.3 |
| 20260506204338 | 74 | 267 | 4.0 | 8.0 | 0.00 | 0.00 | 0.00 | 20 | 1023.5 |
| 20260506203335 | 74 | 231 | 8.0 | 12.0 | 0.00 | 0.00 | 0.00 | 20 | 1023.7 |
| 20260506202345 | 76 | 300 | 7.0 | 12.0 | 0.00 | 0.00 | 0.00 | 21 | 1023.8 |
| 20260506201330 | 74 | 257 | 2.0 | 13.0 | 0.00 | 0.00 | 0.00 | 22 | 1023.9 |
| 20260506200337 | 74 | 327 | 7.0 | 15.0 | 0.00 | 0.00 | 0.00 | 22 | 1023.9 |
| 20260506195321 | 74 | 260 | 7.0 | 13.0 | 0.00 | 0.00 | 0.00 | 22 | 1024.1 |
| 20260506194345 | 73 | 270 | 5.0 | 10.0 | 0.00 | 0.00 | 0.00 | 24 | 1024.1 |
| 20260506193334 | 73 | 229 | 4.0 | 14.0 | 0.00 | 0.00 | 0.00 | 23 | 1024.2 |
| 20260506192327 | 73 | 249 | 6.0 | 13.0 | 0.00 | 0.00 | 0.00 | 25 | 1024.4 |
| 20260506191335 | 73 | 194 | 2.0 | 9.0 | 0.00 | 0.00 | 0.00 | 25 | 1024.5 |
| 20260506190326 | 72 | 37 | 3.0 | 10.0 | 0.00 | 0.00 | 0.00 | 26 | 1024.6 |
| 20260506185334 | 72 | 269 | 6.0 | 14.0 | 0.00 | 0.00 | 0.00 | 26 | 1024.6 |
| 20260506184343 | 72 | 246 | 8.0 | 12.0 | 0.00 | 0.00 | 0.00 | 27 | 1024.8 |
| 20260506183336 | 71 | 21 | 6.0 | 13.0 | 0.00 | 0.00 | 0.00 | 28 | 1024.8 |
| 20260506182323 | 72 | 338 | 8.0 | 11.0 | 0.00 | 0.00 | 0.00 | 29 | 1024.9 |
| 20260506181348 | 72 | 67 | 2.0 | 10.0 | 0.00 | 0.00 | 0.00 | 28 | 1024.9 |
| 20260506180353 | 70 | 42 | 7.0 | 10.0 | 0.00 | 0.00 | 0.00 | 29 | 1025.1 |
| 20260506175337 | 70 | 230 | 3.0 | 6.0 | 0.00 | 0.00 | 0.00 | 31 | 1025.1 |
| 20260506174322 | 70 | 72 | 1.0 | 8.0 | 0.00 | 0.00 | 0.00 | 30 | 1025.1 |
| 20260506173338 | 68 | 73 | 3.0 | 9.0 | 0.00 | 0.00 | 0.00 | 31 | 1025.1 |
| 20260506172322 | 69 | 86 | 2.0 | 9.0 | 0.00 | 0.00 | 0.00 | 32 | 1025.0 |
| 20260506171328 | 68 | 5 | 6.0 | 10.0 | 0.00 | 0.00 | 0.00 | 33 | 1025.1 |
| 20260506170333 | 68 | 345 | 4.0 | 10.0 | 0.00 | 0.00 | 0.00 | 35 | 1025.1 |
| 20260506165320 | 66 | 255 | 5.0 | 9.0 | 0.00 | 0.00 | 0.00 | 36 | 1025.1 |
| 20260506164324 | 65 | 239 | 3.0 | 8.0 | 0.00 | 0.00 | 0.00 | 37 | 1025.1 |
| 20260506163338 | 66 | 85 | 5.0 | 10.0 | 0.00 | 0.00 | 0.00 | 37 | 1025.2 |
| 20260506162341 | 66 | 46 | 2.0 | 7.0 | 0.00 | 0.00 | 0.00 | 36 | 1024.9 |
| 20260506161324 | 67 | 38 | 2.0 | 6.0 | 0.00 | 0.00 | 0.00 | 36 | 1024.9 |
| 20260506160350 | 65 | 13 | 2.0 | 6.0 | 0.00 | 0.00 | 0.00 | 39 | 1024.9 |
| 20260506155343 | 65 | 327 | 4.0 | 8.0 | 0.00 | 0.00 | 0.00 | 39 | 1024.9 |
| 20260506154350 | 64 | 194 | 0.0 | 4.0 | 0.00 | 0.00 | 0.00 | 44 | 1024.8 |
| 20260506153323 | 62 | 259 | 5.0 | 8.0 | 0.00 | 0.00 | 0.00 | 46 | 1024.8 |
| 20260506152331 | 61 | 271 | 1.0 | 10.0 | 0.00 | 0.00 | 0.00 | 48 | 1024.7 |
| 20260506151337 | 61 | 248 | 2.0 | 7.0 | 0.00 | 0.00 | 0.00 | 48 | 1024.9 |
| 20260506150324 | 60 | 240 | 2.0 | 7.0 | 0.00 | 0.00 | 0.00 | 51 | 1024.9 |
| 20260506145329 | 60 | 238 | 3.0 | 5.0 | 0.00 | 0.00 | 0.00 | 51 | 1024.8 |
| 20260506144335 | 60 | 242 | 1.0 | 2.0 | 0.00 | 0.00 | 0.00 | 52 | 1024.8 |
| 20260506143326 | 59 | 242 | 0.0 | 2.0 | 0.00 | 0.00 | 0.00 | 55 | 1024.9 |
| 20260506142356 | 58 | 242 | 2.0 | 4.0 | 0.00 | 0.00 | 0.00 | 57 | 1025.0 |
| 20260506141320 | 57 | 199 | 3.0 | 5.0 | 0.00 | 0.00 | 0.00 | 60 | 1024.9 |
| 20260506140326 | 58 | 223 | 2.0 | 4.0 | 0.00 | 0.00 | 0.00 | 60 | 1024.8 |
| 20260506135330 | 58 | 180 | 0.0 | 1.0 | 0.00 | 0.00 | 0.00 | 56 | 1024.8 |
| 20260506134336 | 58 | 180 | 0.0 | 3.0 | 0.00 | 0.00 | 0.00 | 58 | 1024.7 |
| 20260506133325 | 57 | 181 | 1.0 | 2.0 | 0.00 | 0.00 | 0.00 | 57 | 1024.6 |
| 20260506132329 | 56 | 182 | 0.0 | 1.0 | 0.00 | 0.00 | 0.00 | 58 | 1024.6 |
| 20260506131333 | 56 | 182 | 0.0 | 0.0 | 0.00 | 0.00 | 0.00 | 60 | 1024.5 |
| 20260506130336 | 54 | 182 | 0.0 | 1.0 | 0.00 | 0.00 | 0.00 | 62 | 1024.4 |
| 20260506125319 | 54 | 181 | 0.0 | 2.0 | 0.00 | 0.02 | 0.00 | 63 | 1024.4 |
| 20260506124346 | 54 | 181 | 1.0 | 3.0 | 0.00 | 0.02 | 0.00 | 64 | 1024.4 |
| 20260506123319 | 53 | 181 | 2.0 | 3.0 | 0.00 | 0.02 | 0.00 | 65 | 1024.3 |
| 20260506122328 | 54 | 181 | 2.0 | 4.0 | 0.00 | 0.02 | 0.00 | 64 | 1024.1 |
| 20260506121338 | 54 | 181 | 0.0 | 3.0 | 0.00 | 0.02 | 0.00 | 63 | 1024.0 |
| 20260506120346 | 54 | 181 | 2.0 | 4.0 | 0.00 | 0.02 | 0.00 | 62 | 1023.8 |
| 20260506115328 | 54 | 181 | 3.0 | 4.0 | 0.00 | 0.05 | 0.00 | 61 | 1023.7 |
| 20260506114334 | 55 | 181 | 3.0 | 6.0 | 0.00 | 0.05 | 0.00 | 57 | 1023.6 |
| 20260506113353 | 56 | 191 | 5.0 | 6.0 | 0.00 | 0.05 | 0.00 | 57 | 1023.6 |
| 20260506112320 | 56 | 193 | 5.0 | 7.0 | 0.00 | 0.05 | 0.00 | 58 | 1023.6 |
| 20260506111328 | 56 | 199 | 6.0 | 7.0 | 0.00 | 0.05 | 0.00 | 57 | 1023.5 |
| 20260506110403 | 55 | 167 | 6.0 | 8.0 | 0.00 | 0.05 | 0.00 | 61 | 1023.4 |
| 20260506105323 | 55 | 208 | 3.0 | 6.0 | 0.00 | 0.07 | 0.00 | 62 | 1023.5 |
| 20260506104329 | 55 | 217 | 4.0 | 8.0 | 0.00 | 0.07 | 0.00 | 63 | 1023.5 |
| 20260506103326 | 55 | 211 | 6.0 | 7.0 | 0.00 | 0.07 | 0.00 | 64 | 1023.4 |
| 20260506102333 | 56 | 244 | 3.0 | 5.0 | 0.00 | 0.07 | 0.00 | 62 | 1023.2 |
| 20260506101338 | 55 | 181 | 3.0 | 3.0 | 0.00 | 0.07 | 0.00 | 63 | 1023.1 |
| 20260506100324 | 56 | 181 | 3.0 | 5.0 | 0.00 | 0.07 | 0.00 | 59 | 1023.1 |
| 20260506095334 | 56 | 170 | 4.0 | 7.0 | 0.00 | 0.10 | 0.00 | 59 | 1023.0 |
| 20260506094338 | 56 | 190 | 4.0 | 6.0 | 0.00 | 0.10 | 0.00 | 59 | 1022.8 |
| 20260506093326 | 57 | 203 | 4.0 | 6.0 | 0.00 | 0.10 | 0.00 | 59 | 1022.9 |
| 20260506092331 | 56 | 186 | 3.0 | 7.0 | 0.00 | 0.10 | 0.00 | 60 | 1022.9 |
| 20260506091334 | 57 | 187 | 5.0 | 7.0 | 0.00 | 0.10 | 0.00 | 60 | 1022.9 |
| 20260506090322 | 57 | 195 | 4.0 | 8.0 | 0.00 | 0.10 | 0.00 | 60 | 1023.0 |
| 20260506085357 | 57 | 189 | 4.0 | 6.0 | 0.00 | 0.16 | 0.00 | 60 | 1023.0 |
| 20260506084343 | 57 | 190 | 5.0 | 8.0 | 0.00 | 0.16 | 0.00 | 61 | 1023.1 |
| 20260506083342 | 57 | 200 | 5.0 | 7.0 | 0.00 | 0.16 | 0.00 | 62 | 1023.1 |
| 20260506082355 | 58 | 205 | 5.0 | 7.0 | 0.00 | 0.16 | 0.00 | 62 | 1023.2 |
| 20260506081320 | 58 | 205 | 5.0 | 6.0 | 0.00 | 0.16 | 0.00 | 62 | 1023.2 |
| 20260506080359 | 58 | 183 | 3.0 | 4.0 | 0.00 | 0.16 | 0.00 | 62 | 1023.4 |
| 20260506073337 | 59 | 195 | 3.0 | 5.0 | 0.00 | 0.22 | 0.00 | 60 | 1023.3 |
| 20260506072321 | 58 | 179 | 3.0 | 5.0 | 0.00 | 0.22 | 0.00 | 61 | 1023.3 |
| 20260506071324 | 59 | 229 | 2.0 | 4.0 | 0.00 | 0.22 | 0.00 | 60 | 1023.3 |
| 20260506070358 | 59 | 229 | 3.0 | 4.0 | 0.00 | 0.22 | 0.00 | 60 | 1023.1 |
| 20260506062325 | 60 | 218 | 3.0 | 7.0 | 0.00 | 0.26 | 0.22 | 57 | 1022.8 |
| 20260506061333 | 60 | 234 | 4.0 | 7.0 | 0.00 | 0.26 | 0.22 | 57 | 1023.0 |
| 20260506060319 | 60 | 247 | 4.0 | 8.0 | 0.00 | 0.26 | 0.22 | 57 | 1022.8 |
| 20260506051345 | 62 | 255 | 3.0 | 6.0 | 0.00 | 0.26 | 0.22 | 53 | 1022.8 |
| 20260506050335 | 62 | 255 | 4.0 | 8.0 | 0.00 | 0.26 | 0.22 | 52 | 1022.7 |
| 20260506044327 | 62 | 286 | 3.0 | 9.0 | 0.00 | 0.27 | 0.22 | 51 | 1022.4 |
| 20260506043321 | 62 | 267 | 5.0 | 9.0 | 0.00 | 0.27 | 0.22 | 50 | 1022.2 |
| 20260506042333 | 63 | 241 | 7.0 | 11.0 | 0.00 | 0.27 | 0.22 | 49 | 1022.0 |
| 20260506041321 | 63 | 266 | 9.0 | 12.0 | 0.00 | 0.27 | 0.22 | 46 | 1021.8 |
| 20260506040355 | 63 | 252 | 5.0 | 9.0 | 0.00 | 0.27 | 0.22 | 40 | 1021.6 |
| 20260506035322 | 64 | 248 | 3.0 | 7.0 | 0.00 | 0.28 | 0.22 | 37 | 1021.5 |
| 20260506034330 | 64 | 267 | 6.0 | 9.0 | 0.00 | 0.28 | 0.22 | 36 | 1021.3 |
| 20260506033320 | 65 | 281 | 6.0 | 11.0 | 0.00 | 0.28 | 0.22 | 34 | 1021.2 |
| 20260506032333 | 65 | 253 | 7.0 | 12.0 | 0.00 | 0.28 | 0.22 | 34 | 1021.0 |
| 20260506031328 | 65 | 271 | 6.0 | 10.0 | 0.00 | 0.28 | 0.22 | 34 | 1021.0 |
| 20260506030341 | 66 | 270 | 7.0 | 14.0 | 0.00 | 0.28 | 0.22 | 34 | 1020.9 |
| 20260506025322 | 66 | 254 | 7.0 | 15.0 | 0.00 | 0.30 | 0.22 | 33 | 1020.7 |
| 20260506024345 | 66 | 305 | 8.0 | 14.0 | 0.00 | 0.30 | 0.22 | 33 | 1020.6 |
| 20260506023337 | 66 | 306 | 7.0 | 15.0 | 0.00 | 0.30 | 0.22 | 34 | 1020.4 |
| 20260506022327 | 66 | 285 | 9.0 | 14.0 | 0.00 | 0.30 | 0.22 | 34 | 1020.3 |
| 20260506021355 | 67 | 255 | 9.0 | 15.0 | 0.00 | 0.30 | 0.22 | 34 | 1019.9 |
| 20260506020342 | 67 | 264 | 9.0 | 17.0 | 0.00 | 0.30 | 0.22 | 33 | 1019.8 |
| 20260506015335 | 68 | 265 | 12.0 | 20.0 | 0.00 | 0.31 | 0.22 | 31 | 1019.5 |
| 20260506014325 | 70 | 280 | 10.0 | 20.0 | 0.00 | 0.31 | 0.22 | 28 | 1019.5 |
| 20260506013328 | 70 | 289 | 10.0 | 19.0 | 0.00 | 0.31 | 0.22 | 28 | 1019.4 |
| 20260506012336 | 70 | 242 | 15.0 | 25.0 | 0.00 | 0.31 | 0.22 | 27 | 1019.3 |
| 20260506011326 | 71 | 265 | 9.0 | 24.0 | 0.00 | 0.31 | 0.22 | 28 | 1019.2 |
| 20260506010335 | 70 | 273 | 10.0 | 22.0 | 0.00 | 0.31 | 0.22 | 28 | 1019.1 |
| 20260506005330 | 71 | 278 | 8.0 | 23.0 | 0.00 | 0.32 | 0.22 | 28 | 1019.0 |
| 20260506004357 | 71 | 243 | 9.0 | 21.0 | 0.00 | 0.32 | 0.22 | 28 | 1018.9 |
| 20260506003354 | 71 | 349 | 11.0 | 24.0 | 0.00 | 0.32 | 0.22 | 28 | 1018.8 |
| 20260506002321 | 70 | 228 | 12.0 | 21.0 | 0.00 | 0.32 | 0.22 | 28 | 1018.8 |
| 20260506001329 | 72 | 251 | 13.0 | 22.0 | 0.00 | 0.32 | 0.22 | 27 | 1018.8 |
| 20260506000323 | 73 | 239 | 15.0 | 21.0 | 0.00 | 0.32 | 0.22 | 25 | 1018.7 |
| 20260505235332 | 73 | 265 | 13.0 | 22.0 | 0.00 | 0.32 | 0.22 | 24 | 1018.7 |
| 20260505234325 | 72 | 230 | 12.0 | 26.0 | 0.00 | 0.32 | 0.22 | 26 | 1018.6 |
| 20260505233347 | 73 | 240 | 14.0 | 24.0 | 0.00 | 0.32 | 0.22 | 26 | 1018.6 |
| 20260505232337 | 72 | 222 | 13.0 | 22.0 | 0.00 | 0.32 | 0.22 | 25 | 1018.7 |